Location: Blandford
(50.8667°N, 2.1667°W)
Time: 02:34:36
(UTC+00:00)

Cosmos 2154 Rocket - Pass Details

Date: 09 April 2020
Orbit: 965 x 997 km, 82.9° (Epoch: 03 June)

Event Time Altitude Azimuth Distance (km) Brightness Sun altitude
Rises 19:21:30 0° 351° (N) 3,732 7.5 -4.8°
Reaches altitude 10° 19:24:05 10° 355° (N) 2,777 6.7 -5.2°
Maximum altitude 19:30:26 64° 76° (ENE) 1,100 4.1 -6.1°
Drops below altitude 10° 19:36:41 10° 158° (SSE) 2,744 6.0 -7.1°
Sets 19:39:13 0° 161° (SSE) 3,684 6.6 -7.4°
